Location: *
(49.6619°S, 177.4603°W)
Time: 05:01:30
(UTC+00:00)

SJ-6B - Pass Details

Date: 31 January 2023
Orbit: 501 x 569 km, 97.5° (Epoch: 01 April)

Event Time Altitude Azimuth Distance (km) Brightness Sun altitude
Rises 08:05:06 0° 163° (SSE) 2,661 6.6 -4.9°
Reaches altitude 10° 08:07:16 10° 158° (SSE) 1,760 5.6 -5.2°
Maximum altitude 08:10:59 53° 80° (E) 637 2.8 -5.7°
Drops below altitude 10° 08:14:38 10° 2° (N) 1,728 5.0 -6.1°
Sets 08:16:44 0° 357° (N) 2,606 5.9 -6.4°
